Lafayette, IN

9:52 AM EST on December 11, 2019 (GMT -0500)
Purdue Univ

Weather History for KLAF - November, 2019

Change the Weather History Date:

Thursday, November 14, 2019

  Actual Average Record
Temperature  
Mean Temperature 29 °F 44 °F  
Max Temperature 35 °F 52 °F 75 °F (1971)
Min Temperature 23 °F 35 °F 9 °F (1986)
Degree Days  
Heating Degree Days 36 21  
Month to date heating degree days 438 260  
Since 1 July heating degree days 795 694  
Cooling Degree Days 0 0  
Month to date cooling degree days 0 0  
Year to date cooling degree days 1052 982  
Moisture  
Dew Point 22 °F    
Average Humidity 71    
Maximum Humidity 81    
Minimum Humidity 61    
Precipitation  
Precipitation 0.00 in 0.12 in 1.31 in (1993)
Month to date precipitation 0.26 1.34  
Year to date precipitation 36.42 32.44  
Sea Level Pressure  
Sea Level Pressure 30.25 in    
Wind  
Wind Speed 5 mph ()    
Max Wind Speed 13 mph    
Max Gust Speed 19 mph    
Visibility 10.0 miles    
Events      
T = Trace of Precipitation, MM = Missing Value Source: Averaged Metar Reports

Daily Weather History Graph

Daily Weather History Graph

Search for Another Location

Airport or City:

Astronomy

Nov. 14, 2019 Rise Set
Actual Time 7:32 AM EST 5:31 PM EST
Civil Twilight 7:03 AM EST 6:00 PM EST
Nautical Twilight 6:30 AM EST 6:33 PM EST
Astronomical Twilight 5:58 AM EST 7:05 PM EST
Moon 7:16 PM EST (11/14) 9:27 AM EST (11/14)
Length of Visible Light 10h 57m
Length of Day
9h 59m
Waning Gibbous, 95% of the Moon is Illuminated
Nov 14
Waning Gibbous
Nov 19
Last Quarter
Nov 26
New
Dec 4
First Quarter
Dec 12
Full

Hourly Weather History & Observations

Time (EST) Temp. Windchill Dew Point Humidity Pressure Visibility Wind Dir Wind Speed Gust Speed Precip Events Conditions
12:54 AM 28.9 °F 25.2 °F 19.0 °F 67% 30.14 in 10.0 mi SSW 3.5 mph - N/A   Overcast
1:54 AM 30.0 °F 24.1 °F 19.0 °F 64% 30.14 in 10.0 mi SSW 5.8 mph - N/A   Overcast
2:54 AM 30.0 °F 23.2 °F 19.0 °F 64% 30.14 in 10.0 mi SW 6.9 mph - N/A   Overcast
3:54 AM 28.9 °F 23.9 °F 19.9 °F 69% 30.14 in 10.0 mi SW 4.6 mph - N/A   Mostly Cloudy
4:54 AM 27.0 °F 23.0 °F 19.0 °F 72% 30.15 in 10.0 mi SW 3.5 mph - N/A   Clear
5:54 AM 23.0 °F - 18.0 °F 81% 30.17 in 10.0 mi Calm Calm - N/A   Scattered Clouds
6:54 AM 27.0 °F - 19.9 °F 75% 30.19 in 10.0 mi Calm Calm - N/A   Overcast
7:54 AM 28.0 °F - 21.0 °F 75% 30.22 in 10.0 mi Calm Calm - N/A   Overcast
8:54 AM 28.9 °F 25.2 °F 21.9 °F 75% 30.23 in 10.0 mi West 3.5 mph - N/A   Overcast
9:54 AM 30.9 °F 26.2 °F 21.9 °F 69% 30.25 in 10.0 mi WSW 4.6 mph - N/A   Mostly Cloudy
10:54 AM 33.1 °F 28.7 °F 21.9 °F 64% 30.25 in 10.0 mi Variable 4.6 mph - N/A   Partly Cloudy
11:54 AM 34.0 °F 28.0 °F 21.9 °F 61% 30.26 in 10.0 mi WSW 6.9 mph - N/A   Mostly Cloudy
12:54 PM 34.0 °F 28.8 °F 23.0 °F 64% 30.26 in 10.0 mi West 5.8 mph - N/A   Overcast
1:54 PM 34.0 °F 28.8 °F 23.0 °F 64% 30.26 in 10.0 mi WSW 5.8 mph - N/A   Overcast
2:22 PM 34.0 °F 27.2 °F 23.0 °F 64% 30.24 in 10.0 mi West 8.1 mph - N/A   Overcast
2:54 PM 33.1 °F 26.9 °F 23.0 °F 66% 30.27 in 10.0 mi WNW 6.9 mph - N/A   Overcast
3:54 PM 33.1 °F 26.1 °F 25.0 °F 72% 30.29 in 10.0 mi WNW 8.1 mph - N/A   Overcast
4:54 PM 32.0 °F 24.8 °F 25.0 °F 75% 30.30 in 10.0 mi West 8.1 mph - N/A   Overcast
5:54 PM 32.0 °F 25.6 °F 26.1 °F 79% 30.32 in 10.0 mi West 6.9 mph - N/A   Overcast
6:54 PM 30.9 °F 22.8 °F 24.1 °F 76% 30.34 in 10.0 mi West 9.2 mph - N/A   Overcast
7:54 PM 30.9 °F 22.8 °F 23.0 °F 72% 30.35 in 10.0 mi West 9.2 mph - N/A   Overcast
8:54 PM 30.9 °F 23.5 °F 23.0 °F 72% 30.36 in 10.0 mi West 8.1 mph - N/A   Overcast
9:54 PM 30.9 °F 22.8 °F 23.0 °F 72% 30.36 in 10.0 mi West 9.2 mph - N/A   Overcast
10:54 PM 30.0 °F 20.5 °F 24.1 °F 79% 30.35 in 10.0 mi West 11.5 mph 18.4 mph N/A   Overcast
11:54 PM 30.0 °F 23.2 °F 23.0 °F 75% 30.34 in 10.0 mi West 6.9 mph - N/A   Overcast